Location: Anywhere
(41.5000°N, 71.4000°W)
Time: 11:17:35
(UTC-04:00)

Tiangong - Visible Passes

Search period start: 29 September 2022 00:00
Search period end: 09 October 2022 00:00
Orbit: 381 x 385 km, 41.5° (Epoch: 29 September)

Date Brightness Start Highest point End Pass type
(mag) Time Alt. Az. Time Alt. Az. Time Alt. Az.
29 Sep -0.4 05:25:11 19° SSW 05:25:11 19° SSW 05:27:23 10° SSE visible
06 Oct 0.2 19:45:48 10° S 19:46:46 14° S 19:46:46 14° S visible
07 Oct 0.5 20:21:09 10° SW 20:21:56 16° SW 20:21:56 16° SW visible
08 Oct -0.9 19:21:17 10° SSW 19:23:59 26° SSE 19:24:45 23° SE visible
